This demonstration page uses our WeatherBlox Daily Observations layout. Learn more.

Hourly Observations for January 2, 2016

Temp ( °F °C ) Dew Point ( °F °C ) Humidity (%) Winds ( mph kmh ) Pressure ( in mb ) Visibility ( mi km ) Precip ( " mm )
12:15 am 00:15 Clear 22 -5.6 14 -10.2 70 70 W 7 11 30.45 1031 10 16.0934 0 0
12:35 am 00:35 Clear 21 -6 13 -10.5 71 71 WNW 6 9 30.45 1031 10 16.0934 0 0
12:55 am 00:55 Clear 23 -5.2 13 -10.3 68 68 WNW 7 11 30.42 1030 10 16.0934 0 0
1:15 am 01:15 Clear 22 -5.5 13 -10.5 68 68 WNW 7 11 30.42 1030 10 16.0934 0 0
1:35 am 01:35 Clear 21 -6.1 13 -10.6 71 71 WNW 6 9 30.42 1030 10 16.0934 0 0
1:55 am 01:55 Clear 21 -6.2 13 -10.7 71 71 WNW 5 7 30.42 1030 10 16.0934 0 0
2:15 am 02:15 Clear 20 -6.8 12 -10.9 73 73 W 6 9 30.42 1030 10 16.0934 0 0
2:35 am 02:35 Clear 20 -6.7 13 -10.6 74 74 WNW 6 9 30.42 1030 10 16.0934 0 0
2:55 am 02:55 Clear 20 -6.4 13 -10.5 73 73 W 7 11 30.42 1030 10 16.0934 0 0
3:15 am 03:15 Clear 20 -6.6 13 -10.8 72 72 WNW 6 9 30.42 1030 10 16.0934 0 0
3:35 am 03:35 Clear 19 -7.2 12 -11 75 75 W 8 13 30.42 1030 10 16.0934 0 0
3:55 am 03:55 Clear 19 -7 13 -10.6 76 76 WNW 8 13 30.42 1030 10 16.0934 0 0
4:15 am 04:15 Clear 19 -7 13 -10.5 76 76 W 7 11 30.42 1030 10 16.0934 0 0
4:35 am 04:35 Clear 20 -6.7 13 -10.6 74 74 WNW 8 13 30.39 1029 10 16.0934 0 0
4:55 am 04:55 Clear 19 -7.2 12 -11 75 75 W 7 11 30.39 1029 10 16.0934 0 0
5:15 am 05:15 Clear 18 -7.8 12 -11.2 77 77 W 8 13 30.42 1030 10 16.0934 0 0
5:35 am 05:35 Clear 17 -8.3 12 -11.1 80 80 W 8 13 30.42 1030 10 16.0934 0 0
5:55 am 05:55 Clear 17 -8.1 12 -11 80 80 W 8 13 30.42 1030 10 16.0934 0 0
6:15 am 06:15 Clear 18 -8 12 -11 79 79 W 7 11 30.42 1030 10 16.0934 0 0
6:35 am 06:35 Clear 18 -7.7 13 -10.8 79 79 W 8 13 30.42 1030 10 16.0934 0 0
6:55 am 06:55 Clear 18 -7.9 12 -10.9 79 79 W 7 11 30.42 1030 10 16.0934 0 0
7:15 am 07:15 Clear 18 -7.6 13 -10.8 78 78 W 6 9 30.42 1030 10 16.0934 0 0
7:35 am 07:35 Clear 18 -8 12 -10.9 80 80 WNW 6 9 30.42 1030 10 16.0934 0 0
7:55 am 07:55 Clear 18 -7.9 12 -10.9 79 79 WNW 8 13 30.42 1030 10 16.0934 0 0
8:15 am 08:15 Sunny 20 -6.7 13 -10.5 75 75 WNW 9 15 30.39 1029 10 16.0934 0 0
8:35 am 08:35 Sunny 21 -6.1 13 -10.4 72 72 WNW 8 13 30.39 1029 10 16.0934 0 0
8:55 am 08:55 Sunny 22 -5.5 14 -10 71 71 WNW 8 13 30.39 1029 10 16.0934 0 0
9:15 am 09:15 Sunny 23 -5 15 -9.3 72 72 W 7 11 30.39 1029 10 16.0934 0 0
9:35 am 09:35 Sunny 26 -3.6 17 -8.5 69 69 WNW 7 11 30.36 1028 10 16.0934 0 0
9:55 am 09:55 Sunny 28 -2.1 18 -7.7 66 66 WNW 9 15 30.39 1029 10 16.0934 0 0
10:15 am 10:15 Sunny 31 -0.7 19 -7.4 61 61 WNW 8 13 30.36 1028 10 16.0934 0 0
10:35 am 10:35 Sunny 32 0.1 19 -7.2 58 58 WNW 10 17 30.36 1028 10 16.0934 0 0
10:55 am 10:55 Sunny 34 1.2 19 -7.5 53 53 WNW 9 15 30.33 1027 10 16.0934 0 0
11:15 am 11:15 Sunny 36 2.1 19 -7.2 51 51 WNW 9 15 30.3 1026 10 16.0934 0 0
11:35 am 11:35 Sunny 38 3.1 20 -6.5 50 50 WNW 9 15 30.3 1026 10 16.0934 0 0
11:55 am 11:55 Sunny 39 3.7 20 -6.8 47 47 W 10 17 30.3 1026 10 16.0934 0 0
12:15 pm 12:15 Sunny 41 4.8 20 -6.8 43 43 WNW 10 17 30.24 1024 10 16.0934 0 0
12:35 pm 12:35 Sunny 42 5.8 19 -7.4 38 38 WNW 12 19 30.24 1024 10 16.0934 0 0
12:55 pm 12:55 Sunny 43 6.3 17 -8.3 35 35 WNW 13 20 30.21 1023 10 16.0934 0 0
1:15 pm 13:15 Sunny 45 7 16 -8.9 32 32 WNW 10 17 30.21 1023 10 16.0934 0 0
1:35 pm 13:35 Sunny 45 7 16 -8.7 32 32 WNW 12 19 30.21 1023 10 16.0934 0 0
1:55 pm 13:55 Sunny 45 7.2 17 -8.4 32 32 WNW 14 22 30.21 1023 10 16.0934 0 0
2:15 pm 14:15 Sunny 45 7.1 17 -8.2 33 33 NW 15 24 30.18 1022 10 16.0934 0 0
2:35 pm 14:35 Sunny 45 7.2 17 -8.3 33 33 WNW 14 22 30.18 1022 10 16.0934 0 0
2:55 pm 14:55 Sunny 45 7.2 16 -8.9 31 31 WNW 13 20 30.18 1022 10 16.0934 0 0
3:15 pm 15:15 Sunny 44 6.7 18 -8 35 35 NW 12 19 30.18 1022 10 16.0934 0 0
3:35 pm 15:35 Sunny 45 7 20 -6.6 38 38 NW 12 19 30.21 1023 10 16.0934 0 0
3:55 pm 15:55 Sunny 44 6.7 21 -6.3 39 39 WNW 10 17 30.21 1023 10 16.0934 0 0
4:15 pm 16:15 Sunny 44 6.6 21 -5.9 41 41 WNW 7 11 30.21 1023 10 16.0934 0 0
4:35 pm 16:35 Sunny 43 6.1 22 -5.8 43 43 WNW 7 11 30.21 1023 10 16.0934 0 0
4:55 pm 16:55 Sunny 42 5.3 22 -5.5 46 46 WNW 6 9 30.21 1023 10 16.0934 0 0
5:15 pm 17:15 Sunny 39 4 23 -5.2 52 52 WNW 6 9 30.24 1024 10 16.0934 0 0
5:35 pm 17:35 Clear 37 2.6 22 -5.5 56 56 WNW 7 11 30.24 1024 10 16.0934 0 0
5:55 pm 17:55 Clear 34 1.3 22 -5.6 60 60 WNW 6 9 30.27 1025 10 16.0934 0 0
6:15 pm 18:15 Clear 33 0.6 21 -6.1 61 61 NW 6 9 30.27 1025 10 16.0934 0 0
6:35 pm 18:35 Clear 33 0.6 21 -6.3 60 60 NW 8 13 30.27 1025 10 16.0934 0 0
6:55 pm 18:55 Clear 31 -0.8 21 -6.3 67 67 NW 7 11 30.27 1025 10 16.0934 0 0
7:15 pm 19:15 Clear 34 1.3 20 -6.5 56 56 NW 9 15 30.27 1025 10 16.0934 0 0
7:35 pm 19:35 Clear 33 0.7 20 -6.5 59 59 NW 9 15 30.27 1025 10 16.0934 0 0
7:55 pm 19:55 Clear 32 0.1 20 -6.5 62 62 NW 9 15 30.27 1025 10 16.0934 0 0
8:15 pm 20:15 Clear 32 0.2 20 -6.8 60 60 NNW 7 11 30.27 1025 10 16.0934 0 0
8:35 pm 20:35 Clear 32 0 20 -6.8 61 61 NW 10 17 30.27 1025 10 16.0934 0 0
8:55 pm 20:55 Clear 30 -0.9 20 -6.9 64 64 NW 9 15 30.3 1026 10 16.0934 0 0
9:15 pm 21:15 Clear 29 -1.7 19 -7 67 67 NW 8 13 30.33 1027 10 16.0934 0 0
9:35 pm 21:35 Clear 30 -1.3 20 -6.8 67 67 NW 8 13 30.3 1026 10 16.0934 0 0
9:55 pm 21:55 Clear 30 -1.1 19 -7.3 63 63 NW 8 13 30.3 1026 10 16.0934 0 0
10:15 pm 22:15 Clear 29 -1.5 19 -7.2 66 66 NNW 10 17 30.3 1026 10 16.0934 0 0
10:35 pm 22:35 Clear 28 -2.4 19 -7.3 69 69 NNW 8 13 30.33 1027 10 16.0934 0 0
10:55 pm 22:55 Clear 27 -2.7 19 -7.3 71 71 NW 10 17 30.36 1028 10 16.0934 0 0
11:15 pm 23:15 Clear 27 -2.6 19 -7.5 69 69 NNW 10 17 30.36 1028 10 16.0934 0 0
11:35 pm 23:35 Clear 27 -2.8 18 -7.8 69 69 NW 8 13 30.36 1028 10 16.0934 0 0
11:55 pm 23:55 Clear 27 -2.8 18 -7.7 69 69 NW 9 15 30.36 1028 10 16.0934 0 0

Powered by AerisWeather